GW6181 Weather Reports


time (UTC)temp
C
wind
direction
speed
KPH
gust
KPH
rain 1hr
cm
rain 24hr
cm
rain mn
cm
humidity
%
barometer
mb
20260506162517 16 127 0.0 3.2 0.00 0.00 0.00 90 1007.0
20260506162017 16 226 0.0 4.8 0.00 0.00 0.00 90 1007.0
20260506161517 16 180 1.6 4.8 0.00 0.00 0.00 89 1007.0
20260506161017 16 159 1.6 6.4 0.00 0.00 0.00 88 1008.0
20260506160517 16 160 1.6 4.8 0.00 0.00 0.00 87 1008.0
20260506160017 17 306 0.0 4.8 0.00 0.00 0.00 86 1007.0
20260506155517 17 38 0.0 3.2 0.00 0.00 0.00 86 1007.0
20260506155018 17 160 1.6 3.2 0.00 0.00 0.00 85 1008.0
20260506154516 17 263 1.6 3.2 0.00 0.00 0.00 84 1008.0
20260506154016 17 36 1.6 1.6 0.00 0.00 0.00 84 1008.0
20260506153517 17 343 3.2 9.7 0.00 0.00 0.00 84 1007.0
20260506153017 17 175 0.0 4.8 0.00 0.00 0.00 82 1007.0
20260506152517 17 117 0.0 4.8 0.00 0.00 0.00 83 1007.0
20260506152016 17 205 0.0 6.4 0.00 0.00 0.00 82 1007.0
20260506151516 17 193 3.2 8.0 0.00 0.00 0.00 81 1007.0
20260506151016 17 166 3.2 4.8 0.00 0.00 0.00 79 1007.0
20260506150518 18 160 3.2 4.8 0.00 0.00 0.00 75 1007.0
20260506150017 18 194 1.6 9.7 0.00 0.00 0.00 72 1008.0
20260506145516 18 250 3.2 9.7 0.00 0.00 0.00 70 1008.0
20260506145020 18 201 3.2 4.8 0.00 0.00 0.00 70 1008.0
20260506144517 18 175 1.6 6.4 0.00 0.00 0.00 70 1008.0
20260506144016 18 146 3.2 8.0 0.00 0.00 0.00 70 1008.0
20260506143517 18 127 1.6 8.0 0.00 0.00 0.00 69 1007.0
20260506143017 18 0 3.2 6.4 0.00 0.00 0.00 69 1008.0
20260506142518 19 257 0.0 6.4 0.00 0.00 0.00 68 1007.0
20260506142017 19 271 8.0 8.0 0.00 0.00 0.00 68 1007.0
20260506141517 19 246 3.2 6.4 0.00 0.00 0.00 68 1007.0
20260506141017 18 52 3.2 9.7 0.00 0.00 0.00 68 1007.0
20260506140517 18 196 3.2 8.0 0.00 0.00 0.00 68 1007.0
20260506140018 18 71 4.8 4.8 0.00 0.00 0.00 69 1007.0
20260506135516 18 127 4.8 8.0 0.00 0.00 0.00 68 1007.0
20260506134528 18 254 3.2 8.0 0.00 0.00 0.00 69 1008.0
20260506134017 18 183 0.0 8.0 0.00 0.00 0.00 69 1007.0
20260506133517 18 278 6.4 8.0 0.00 0.00 0.00 68 1008.0
20260506133016 18 202 1.6 11.3 0.00 0.00 0.00 69 1008.0
20260506132517 18 28 1.6 6.4 0.00 0.00 0.00 69 1008.0
20260506132018 18 197 1.6 6.4 0.00 0.00 0.00 70 1008.0
20260506131517 18 105 1.6 9.7 0.00 0.00 0.00 70 1008.0
20260506131017 18 321 0.0 9.7 0.00 0.00 0.00 70 1008.0
20260506130518 18 274 1.6 8.0 0.00 0.00 0.00 72 1008.0
20260506130017 18 181 3.2 4.8 0.00 0.00 0.00 72 1008.0
20260506125517 18 134 3.2 4.8 0.00 0.00 0.00 72 1008.0
20260506125016 18 278 1.6 8.0 0.00 0.00 0.00 72 1007.0
20260506124518 18 91 0.0 4.8 0.00 0.00 0.00 73 1007.0
20260506124017 18 288 3.2 4.8 0.00 0.00 0.00 73 1007.0
20260506123516 17 158 1.6 4.8 0.00 0.00 0.00 73 1007.0
20260506123017 17 186 4.8 14.5 0.00 0.00 0.00 73 1007.0
20260506122519 17 190 1.6 3.2 0.00 0.00 0.00 74 1007.0
20260506122016 17 304 4.8 4.8 0.00 0.00 0.00 75 1007.0
20260506121516 17 178 1.6 3.2 0.00 0.00 0.00 75 1007.0
20260506121016 17 175 1.6 3.2 0.00 0.00 0.00 75 1008.0
20260506120517 17 314 4.8 4.8 0.00 0.00 0.00 75 1008.0
20260506120017 17 351 1.6 4.8 0.00 0.00 0.00 76 1008.0
20260506115516 17 148 4.8 6.4 0.00 0.00 0.00 76 1008.0
20260506115016 17 272 1.6 3.2 0.00 0.00 0.00 76 1008.0
20260506114517 17 117 1.6 6.4 0.00 0.00 0.00 76 1008.0
20260506114016 17 165 1.6 4.8 0.00 0.00 0.00 77 1008.0
20260506113516 17 190 1.6 6.4 0.00 0.00 0.00 76 1008.0
20260506113017 17 263 6.4 6.4 0.00 0.00 0.00 77 1008.0
20260506112516 17 172 3.2 6.4 0.00 0.00 0.00 77 1008.0
20260506112016 17 189 3.2 4.8 0.00 0.00 0.00 77 1008.0
20260506111516 16 115 3.2 12.9 0.00 0.00 0.00 78 1008.0
20260506111018 16 132 6.4 8.0 0.00 0.00 0.00 79 1008.0
20260506110517 16 268 1.6 8.0 0.00 0.00 0.00 80 1008.0
20260506110017 16 220 3.2 6.4 0.00 0.00 0.00 80 1008.0
20260506105516 16 108 4.8 8.0 0.00 0.00 0.00 80 1008.0
20260506105016 16 99 1.6 8.0 0.00 0.00 0.00 80 1008.0
20260506104516 16 132 4.8 8.0 0.00 0.00 0.00 80 1008.0
20260506104017 16 190 4.8 8.0 0.00 0.00 0.00 80 1008.0
20260506103516 16 297 1.6 4.8 0.00 0.00 0.00 80 1008.0
20260506103016 16 134 1.6 4.8 0.00 0.00 0.00 80 1008.0
20260506102517 16 117 0.0 4.8 0.00 0.00 0.00 80 1008.0
20260506102016 16 119 3.2 8.0 0.00 0.00 0.00 80 1008.0
20260506101517 16 204 6.4 11.3 0.00 0.00 0.00 80 1008.0
20260506101016 16 272 3.2 6.4 0.00 0.00 0.00 80 1008.0
20260506100517 16 128 4.8 6.4 0.00 0.00 0.00 80 1008.0
20260506100016 16 316 3.2 4.8 0.00 0.00 0.00 80 1008.0
20260506095517 16 269 0.0 4.8 0.00 0.00 0.00 80 1008.0
20260506095016 16 5 1.6 4.8 0.00 0.00 0.00 80 1007.0
20260506094516 16 197 0.0 6.4 0.00 0.00 0.00 80 1008.0
20260506094017 16 182 4.8 6.4 0.00 0.00 0.00 81 1007.0
20260506093516 16 77 0.0 4.8 0.00 0.00 0.00 81 1007.0
20260506093016 16 316 3.2 6.4 0.00 0.00 0.00 80 1007.0
20260506092516 16 192 4.8 4.8 0.00 0.00 0.00 81 1008.0
20260506092019 16 166 0.0 6.4 0.00 0.00 0.00 81 1007.0
20260506091517 16 195 0.0 6.4 0.00 0.00 0.00 81 1008.0
20260506091016 16 349 0.0 3.2 0.00 0.00 0.00 81 1008.0
20260506090516 16 291 0.0 4.8 0.00 0.00 0.00 81 1008.0
20260506090016 16 125 1.6 4.8 0.00 0.00 0.00 81 1008.0
20260506085516 16 160 3.2 6.4 0.00 0.00 0.00 80 1008.0
20260506085016 16 265 3.2 4.8 0.00 0.00 0.00 79 1008.0
20260506084517 16 310 0.0 3.2 0.00 0.00 0.00 79 1008.0
20260506084016 16 51 3.2 4.8 0.00 0.00 0.00 79 1008.0
20260506083517 16 269 0.0 6.4 0.00 0.00 0.00 79 1008.0
20260506083017 16 180 4.8 4.8 0.00 0.00 0.00 79 1008.0
20260506082516 16 133 0.0 3.2 0.00 0.00 0.00 79 1008.0
20260506082016 16 220 3.2 6.4 0.00 0.00 0.00 79 1008.0
20260506081516 16 271 1.6 4.8 0.00 0.00 0.00 79 1008.0
20260506081016 16 274 1.6 4.8 0.00 0.00 0.00 78 1008.0
20260506080517 16 89 0.0 3.2 0.00 0.00 0.00 78 1008.0
20260506073517 16 315 0.0 6.4 0.00 0.00 0.00 76 1008.0
20260506073017 16 170 0.0 4.8 0.00 0.00 0.00 75 1008.0
20260506072517 17 213 3.2 3.2 0.00 0.00 0.00 75 1008.0
20260506072017 17 177 3.2 6.4 0.00 0.00 0.00 75 1008.0
20260506071516 17 159 1.6 4.8 0.00 0.00 0.00 74 1008.0
20260506071016 17 154 0.0 3.2 0.00 0.00 0.00 74 1008.0
20260506070517 17 75 1.6 3.2 0.00 0.00 0.00 73 1008.0
20260506062517 17 181 3.2 6.4 0.00 0.00 0.00 69 1008.0
20260506062016 17 210 3.2 4.8 0.00 0.00 0.00 69 1008.0
20260506061517 17 13 0.0 4.8 0.00 0.00 0.00 69 1008.0
20260506061016 17 273 4.8 4.8 0.00 0.00 0.00 69 1008.0
20260506060517 17 154 1.6 3.2 0.00 0.00 0.00 68 1008.0
20260506051016 18 259 1.6 3.2 0.00 0.00 0.00 65 1008.0
20260506050517 18 47 3.2 4.8 0.00 0.00 0.00 65 1009.0
20260506045017 18 240 3.2 4.8 0.00 0.00 0.00 64 1009.0
20260506044516 18 212 3.2 6.4 0.00 0.00 0.00 64 1009.0
20260506044017 18 197 4.8 6.4 0.00 0.00 0.00 63 1008.0
20260506043516 18 190 1.6 6.4 0.00 0.00 0.00 63 1009.0
20260506043020 18 57 3.2 9.7 0.00 0.00 0.00 63 1009.0
20260506042516 18 254 3.2 9.7 0.00 0.00 0.00 62 1008.0
20260506042016 18 149 0.0 4.8 0.00 0.00 0.00 62 1008.0
20260506041517 18 310 1.6 9.7 0.00 0.00 0.00 62 1008.0
20260506041016 18 88 0.0 4.8 0.00 0.00 0.00 61 1008.0
20260506040516 18 273 1.6 4.8 0.00 0.00 0.00 61 1009.0
20260506040019 18 180 4.8 6.4 0.00 0.00 0.00 61 1008.0
20260506035516 18 91 4.8 4.8 0.00 0.00 0.00 61 1009.0
20260506035016 18 329 3.2 4.8 0.00 0.00 0.00 61 1008.0
20260506034517 18 183 1.6 6.4 0.00 0.00 0.00 60 1009.0
20260506034017 18 181 4.8 6.4 0.00 0.00 0.00 60 1008.0
20260506033516 18 100 1.6 6.4 0.00 0.00 0.00 60 1008.0
20260506033016 19 176 3.2 8.0 0.00 0.00 0.00 60 1009.0
20260506032517 19 330 1.6 6.4 0.00 0.00 0.00 59 1008.0
20260506032016 19 203 4.8 14.5 0.00 0.00 0.00 59 1008.0
20260506031516 19 301 1.6 4.8 0.00 0.00 0.00 59 1008.0
20260506031016 19 314 1.6 4.8 0.00 0.00 0.00 58 1008.0
20260506030516 20 141 1.6 4.8 0.00 0.00 0.00 58 1008.0
20260506030016 20 19 1.6 6.4 0.00 0.00 0.00 57 1008.0
20260506025516 20 328 0.0 6.4 0.00 0.00 0.00 57 1008.0
20260506025016 20 234 3.2 8.0 0.00 0.00 0.00 57 1008.0
20260506024516 20 340 3.2 8.0 0.00 0.00 0.00 56 1008.0
20260506024017 20 269 0.0 4.8 0.00 0.00 0.00 56 1008.0
20260506023516 20 159 4.8 6.4 0.00 0.00 0.00 55 1008.0
20260506023017 20 106 1.6 6.4 0.00 0.00 0.00 55 1008.0
20260506022517 20 187 0.0 3.2 0.00 0.00 0.00 54 1008.0
20260506022016 20 173 3.2 8.0 0.00 0.00 0.00 53 1008.0
20260506021516 20 56 3.2 6.4 0.00 0.00 0.00 53 1008.0
20260506021017 21 294 4.8 9.7 0.00 0.00 0.00 52 1008.0
20260506020516 21 190 4.8 9.7 0.00 0.00 0.00 51 1008.0
20260506020016 21 183 3.2 8.0 0.00 0.00 0.00 50 1008.0
20260506015517 21 157 4.8 6.4 0.00 0.00 0.00 49 1008.0
20260506015016 21 122 3.2 4.8 0.00 0.00 0.00 48 1008.0
20260506014516 21 237 4.8 4.8 0.00 0.00 0.00 47 1008.0
20260506014016 21 170 0.0 8.0 0.00 0.00 0.00 46 1008.0
20260506013516 21 23 0.0 9.7 0.00 0.00 0.00 45 1008.0
20260506013017 21 195 3.2 6.4 0.00 0.00 0.00 45 1008.0
20260506012517 21 215 1.6 6.4 0.00 0.00 0.00 44 1008.0
20260506012017 22 314 4.8 6.4 0.00 0.00 0.00 44 1008.0
20260506011516 22 154 3.2 6.4 0.00 0.00 0.00 44 1007.0
20260506011017 22 143 3.2 4.8 0.00 0.00 0.00 44 1008.0
20260506010522 22 242 3.2 4.8 0.00 0.00 0.00 44 1007.0
20260506010016 22 304 3.2 4.8 0.00 0.00 0.00 43 1007.0
20260506005516 22 306 0.0 4.8 0.00 0.00 0.00 44 1007.0
20260506005016 22 227 1.6 6.4 0.00 0.00 0.00 43 1007.0
20260506004517 22 279 4.8 4.8 0.00 0.00 0.00 43 1007.0
20260506004017 22 186 1.6 6.4 0.00 0.00 0.00 42 1007.0
20260506003517 22 256 1.6 6.4 0.00 0.00 0.00 42 1007.0
20260506003016 22 205 1.6 8.0 0.00 0.00 0.00 42 1007.0
20260506002516 22 209 3.2 8.0 0.00 0.00 0.00 41 1007.0
20260506002017 22 341 3.2 6.4 0.00 0.00 0.00 40 1007.0
20260506001517 23 281 1.6 4.8 0.00 0.00 0.00 39 1007.0
20260506001017 23 276 4.8 6.4 0.00 0.00 0.00 38 1007.0
20260506000516 23 275 1.6 4.8 0.00 0.00 0.00 37 1007.0
20260506000018 23 283 1.6 4.8 0.00 0.00 0.00 37 1007.0
20260505235516 23 193 1.6 6.4 0.00 0.00 0.00 36 1007.0
20260505235017 23 36 0.0 6.4 0.00 0.00 0.00 35 1007.0
20260505234517 23 354 1.6 4.8 0.00 0.00 0.00 35 1007.0
20260505234016 24 340 1.6 6.4 0.00 0.00 0.00 34 1007.0
20260505233517 23 223 3.2 8.0 0.00 0.00 0.00 34 1007.0
20260505233016 24 194 4.8 8.0 0.00 0.00 0.00 33 1007.0
20260505232517 24 212 3.2 8.0 0.00 0.00 0.00 33 1006.0
20260505232017 25 192 4.8 9.7 0.00 0.00 0.00 32 1007.0
20260505231517 25 271 4.8 9.7 0.00 0.00 0.00 32 1006.0
20260505231016 25 282 8.0 11.3 0.00 0.00 0.00 32 1006.0
20260505230516 25 205 1.6 6.4 0.00 0.00 0.00 33 1006.0
20260505230016 25 300 0.0 4.8 0.00 0.00 0.00 32 1006.0
20260505225516 25 195 6.4 11.3 0.00 0.00 0.00 31 1006.0
20260505225017 25 340 3.2 8.0 0.00 0.00 0.00 31 1006.0
20260505224516 25 229 1.6 14.5 0.00 0.00 0.00 31 1006.0
20260505224018 25 192 4.8 11.3 0.00 0.00 0.00 31 1006.0
20260505223517 25 291 6.4 9.7 0.00 0.00 0.00 30 1006.0
20260505223016 25 115 4.8 14.5 0.00 0.00 0.00 31 1006.0
20260505222516 25 191 6.4 11.3 0.00 0.00 0.00 30 1006.0
20260505222017 25 251 4.8 8.0 0.00 0.00 0.00 29 1006.0
20260505221516 25 258 4.8 11.3 0.00 0.00 0.00 29 1006.0
20260505221023 26 189 0.0 4.8 0.00 0.00 0.00 28 1006.0
20260505220517 26 353 3.2 8.0 0.00 0.00 0.00 28 1006.0
20260505220016 26 200 6.4 8.0 0.00 0.00 0.00 28 1006.0
20260505215518 26 265 1.6 8.0 0.00 0.00 0.00 27 1006.0
20260505215018 26 257 6.4 11.3 0.00 0.00 0.00 27 1005.0
20260505214517 26 257 3.2 9.7 0.00 0.00 0.00 28 1006.0
20260505214026 26 303 11.3 14.5 0.00 0.00 0.00 27 1006.0
20260505213517 26 253 6.4 9.7 0.00 0.00 0.00 28 1006.0
20260505213016 26 220 3.2 9.7 0.00 0.00 0.00 29 1005.0
20260505212516 26 170 9.7 9.7 0.00 0.00 0.00 29 1005.0
20260505212016 26 218 8.0 14.5 0.00 0.00 0.00 28 1005.0
20260505211517 27 196 4.8 9.7 0.00 0.00 0.00 28 1005.0
20260505211016 28 303 6.4 9.7 0.00 0.00 0.00 28 1005.0
20260505210518 28 202 1.6 8.0 0.00 0.00 0.00 27 1005.0
20260505210016 27 231 6.4 9.7 0.00 0.00 0.00 27 1005.0
20260505205517 27 206 6.4 9.7 0.00 0.00 0.00 28 1005.0
20260505205016 28 186 6.4 8.0 0.00 0.00 0.00 27 1005.0
20260505204516 27 219 9.7 9.7 0.00 0.00 0.00 28 1005.0
20260505204020 27 320 4.8 11.3 0.00 0.00 0.00 28 1005.0
20260505203516 28 197 3.2 24.1 0.00 0.00 0.00 26 1005.0
20260505203016 28 273 8.0 14.5 0.00 0.00 0.00 26 1005.0
20260505202517 28 276 4.8 11.3 0.00 0.00 0.00 27 1005.0
20260505202017 28 296 3.2 8.0 0.00 0.00 0.00 28 1005.0
20260505201516 28 266 4.8 9.7 0.00 0.00 0.00 29 1005.0
20260505201017 28 111 3.2 11.3 0.00 0.00 0.00 28 1005.0
20260505200517 28 289 16.1 16.1 0.00 0.00 0.00 29 1005.0
20260505200017 28 215 8.0 11.3 0.00 0.00 0.00 29 1005.0
20260505195519 28 1 4.8 9.7 0.00 0.00 0.00 29 1005.0
20260505195016 28 224 1.6 11.3 0.00 0.00 0.00 29 1005.0
20260505194517 28 206 4.8 9.7 0.00 0.00 0.00 29 1005.0
20260505194016 28 265 4.8 8.0 0.00 0.00 0.00 29 1006.0
20260505193517 29 166 0.0 11.3 0.00 0.00 0.00 28 1005.0
20260505193017 28 98 4.8 8.0 0.00 0.00 0.00 28 1005.0
20260505192518 28 271 3.2 8.0 0.00 0.00 0.00 28 1005.0
20260505192017 29 198 3.2 8.0 0.00 0.00 0.00 28 1006.0
20260505191516 28 204 8.0 14.5 0.00 0.00 0.00 28 1006.0
20260505191016 28 146 6.4 8.0 0.00 0.00 0.00 27 1006.0
20260505190516 29 280 3.2 12.9 0.00 0.00 0.00 28 1006.0
20260505190016 28 318 0.0 8.0 0.00 0.00 0.00 30 1006.0
20260505185516 28 168 4.8 8.0 0.00 0.00 0.00 29 1006.0
20260505185017 28 314 4.8 8.0 0.00 0.00 0.00 29 1006.0
20260505184517 28 194 3.2 17.7 0.00 0.00 0.00 29 1006.0
20260505184017 28 221 6.4 12.9 0.00 0.00 0.00 29 1006.0
20260505183517 29 194 3.2 8.0 0.00 0.00 0.00 29 1006.0
20260505183017 29 208 3.2 16.1 0.00 0.00 0.00 29 1006.0
20260505182516 28 146 4.8 4.8 0.00 0.00 0.00 31 1006.0
20260505182019 28 266 1.6 9.7 0.00 0.00 0.00 30 1006.0
20260505181518 29 194 8.0 8.0 0.00 0.00 0.00 31 1006.0
20260505181017 29 22 3.2 6.4 0.00 0.00 0.00 32 1006.0
20260505180518 29 161 3.2 6.4 0.00 0.00 0.00 30 1006.0
20260505180016 29 199 3.2 6.4 0.00 0.00 0.00 31 1006.0
20260505175516 29 195 3.2 8.0 0.00 0.00 0.00 31 1006.0
20260505175016 28 162 6.4 9.7 0.00 0.00 0.00 32 1006.0
20260505174516 28 41 9.7 16.1 0.00 0.00 0.00 33 1006.0
20260505174017 28 273 8.0 8.0 0.00 0.00 0.00 33 1006.0
20260505173517 29 225 9.7 14.5 0.00 0.00 0.00 31 1006.0
20260505173017 29 241 4.8 8.0 0.00 0.00 0.00 32 1007.0
20260505172516 28 145 3.2 4.8 0.00 0.00 0.00 34 1007.0
20260505172017 28 294 3.2 9.7 0.00 0.00 0.00 34 1007.0
20260505171516 28 295 4.8 8.0 0.00 0.00 0.00 35 1007.0
20260505171017 28 175 0.0 11.3 0.00 0.00 0.00 34 1007.0
20260505170517 28 251 9.7 12.9 0.00 0.00 0.00 34 1007.0
20260505170016 27 12 0.0 3.2 0.00 0.00 0.00 37 1007.0
20260505165517 27 341 4.8 8.0 0.00 0.00 0.00 36 1007.0
20260505165018 27 320 3.2 6.4 0.00 0.00 0.00 37 1007.0
20260505164516 27 187 4.8 8.0 0.00 0.00 0.00 36 1007.0
20260505164016 27 174 1.6 4.8 0.00 0.00 0.00 38 1007.0
20260505163516 26 144 3.2 4.8 0.00 0.00 0.00 39 1007.0
20260505163017 26 269 3.2 4.8 0.00 0.00 0.00 39 1007.0